Location: Aulnoy
(48.8410°N, 3.0967°E)
Time: 22:06:42
(UTC+00:00)

Cosmos 1745 Rocket - Pass Details

Date: 09 February 2023
Orbit: 952 x 998 km, 83.0° (Epoch: 28 March)

Event Time Altitude Azimuth Distance (km) Brightness Sun altitude
Rises 18:14:22 0° 350° (N) 3,687 7.1 -13.0°
Reaches altitude 10° 18:16:54 10° 351° (N) 2,729 6.4 -13.4°
Maximum altitude 18:23:10 87° 79° (E) 972 3.9 -14.4°
Drops below altitude 10° 18:29:19 10° 172° (S) 2,682 6.3 -15.4°
Sets 18:31:48 0° 172° (S) 3,619 7.0 -15.8°
